Mount Sterling, KY

8:25 AM EST on February 07, 2016 (GMT -0500)
Mount Sterling-Montgomery County

Weather History for KIOB - March, 2013

Change the Weather History Date:

Friday, March 1, 2013

  Actual Average Record
Temperature  
Mean Temperature 34 °F -  
Max Temperature 35 °F 52 °F 53 °F (2014)
Min Temperature 32 °F 30 °F 32 °F (2013)
Degree Days  
Heating Degree Days 32    
Moisture  
Dew Point 33 °F    
Average Humidity 99    
Maximum Humidity 100    
Minimum Humidity 93    
Precipitation  
Precipitation 0.00 in - - ()
Sea Level Pressure  
Sea Level Pressure 29.97 in    
Wind  
Wind Speed 4 mph (North)    
Max Wind Speed 8 mph    
Max Gust Speed -    
Visibility 5 miles    
Events Rain , Snow    
Averages and records for this station are not official NWS values.
T = Trace of Precipitation, MM = Missing Value Source: NWS Daily Summary

Daily Weather History Graph

Daily Weather History Graph

Search for Another Location

Airport or City:

Trip Planner

Search our weather history database for the weather conditions in past years. The results will help you decide how hot, cold, wet, or windy it might be!

Date:

Astronomy

Mar. 01, 2013 Rise Set
Actual Time 7:07 AM EST 6:29 PM EST
Civil Twilight 6:40 AM EST 6:56 PM EST
Nautical Twilight 6:10 AM EST 7:26 PM EST
Astronomical Twilight 5:39 AM EST 7:57 PM EST
Moon 10:56 PM EST (3/1) 8:58 AM EST (3/1)
Length of Visible Light 12h 15m
Length of Day
11h 22m
Waning Gibbous, 83% of the Moon is Illuminated
Mar 1
Waning Gibbous
Mar 4
Last Quarter
Mar 11
New
Mar 19
First Quarter
Mar 27
Full

Hourly Weather History & Observations

Time (EST) Temp. Windchill Dew Point Humidity Pressure Visibility Wind Dir Wind Speed Gust Speed Precip Events Conditions
12:15 AM 33.8 °F 27.7 °F 33.8 °F 100% 29.95 in 3.0 mi NW 6.9 mph - N/A   Overcast
12:35 AM 33.8 °F 29.6 °F 33.8 °F 100% 29.95 in 3.0 mi NW 4.6 mph - N/A   Overcast
12:55 AM 33.8 °F 29.6 °F 33.8 °F 100% 29.95 in 4.0 mi NW 4.6 mph - N/A   Overcast
1:15 AM 33.8 °F 30.8 °F 33.8 °F 100% 29.95 in 5.0 mi NW 3.5 mph - N/A   Overcast
1:35 AM 33.8 °F 28.6 °F 33.8 °F 100% 29.95 in 5.0 mi NNW 5.8 mph - N/A   Overcast
2:15 AM 33.8 °F 29.6 °F 33.8 °F 100% 29.94 in 5.0 mi NNW 4.6 mph - N/A   Overcast
2:35 AM 33.8 °F 29.6 °F 33.8 °F 100% 29.93 in 7.0 mi NNW 4.6 mph - N/A   Overcast
2:55 AM 33.8 °F 30.8 °F 33.8 °F 100% 29.93 in 7.0 mi NNW 3.5 mph - N/A   Overcast
3:15 AM 33.8 °F 28.6 °F 33.8 °F 100% 29.93 in 7.0 mi NW 5.8 mph - N/A   Overcast
3:35 AM 33.8 °F 30.8 °F 33.8 °F 100% 29.93 in 7.0 mi NW 3.5 mph - N/A   Overcast
3:55 AM 33.8 °F 30.8 °F 33.8 °F 100% 29.93 in 4.0 mi NNW 3.5 mph - N/A   Light Drizzle
4:15 AM 33.8 °F - 33.8 °F 100% 29.93 in 3.0 mi Calm Calm - N/A   Light Drizzle
4:35 AM 33.8 °F - 33.8 °F 100% 29.93 in 2.5 mi Calm Calm - N/A   Drizzle
4:55 AM 33.8 °F - 33.8 °F 100% 29.93 in 3.0 mi Calm Calm - N/A   Light Drizzle
5:15 AM 33.8 °F - 33.8 °F 100% 29.94 in 3.0 mi Calm Calm - N/A   Light Drizzle
5:35 AM 33.8 °F - 33.8 °F 100% 29.94 in 3.0 mi Calm Calm - N/A   Light Drizzle
5:55 AM 33.8 °F - 33.8 °F 100% 29.95 in 3.0 mi Calm Calm - N/A   Overcast
6:15 AM 33.8 °F - 33.8 °F 100% 29.95 in 5.0 mi Calm Calm - N/A   Overcast
6:35 AM 33.8 °F 30.8 °F 33.8 °F 100% 29.95 in 4.0 mi North 3.5 mph - N/A   Overcast
6:55 AM 33.8 °F 30.8 °F 33.8 °F 100% 29.95 in 4.0 mi NNW 3.5 mph - N/A   Overcast
7:15 AM 33.8 °F 30.8 °F 33.8 °F 100% 29.95 in 5.0 mi North 3.5 mph - N/A   Overcast
7:35 AM 33.8 °F - 33.8 °F 100% 29.95 in 5.0 mi Calm Calm - N/A   Overcast
8:35 AM 33.8 °F 29.6 °F 33.8 °F 100% 29.97 in 2.5 mi NNW 4.6 mph - N/A   Overcast
8:55 AM 33.8 °F 30.8 °F 33.8 °F 100% 29.98 in 3.0 mi NNW 3.5 mph - N/A   Overcast
9:15 AM 33.8 °F 30.8 °F 33.8 °F 100% 29.98 in 2.5 mi NNW 3.5 mph - N/A Snow Light Snow
9:35 AM 33.8 °F 28.6 °F 32.0 °F 93% 29.98 in 2.5 mi NNW 5.8 mph - N/A Snow Light Snow
9:55 AM 33.8 °F 30.8 °F 33.8 °F 100% 29.98 in 2.0 mi NNW 3.5 mph - N/A   Overcast
10:15 AM 33.8 °F 30.8 °F 33.8 °F 100% 29.98 in 2.0 mi NW 3.5 mph - N/A   Overcast
10:35 AM 33.8 °F 27.7 °F 33.8 °F 100% 29.98 in 2.5 mi NNW 6.9 mph - N/A   Overcast
11:15 AM 35.6 °F 31.7 °F 33.8 °F 93% 29.98 in 10.0 mi North 4.6 mph - N/A Rain Light Rain
11:35 AM 33.8 °F 28.6 °F 33.8 °F 100% 29.98 in 10.0 mi NNW 5.8 mph - N/A Rain Light Rain
11:55 AM 33.8 °F 29.6 °F 33.8 °F 100% 29.99 in 7.0 mi NNW 4.6 mph - N/A Rain Light Rain
12:15 PM 33.8 °F 29.6 °F 32.0 °F 93% 29.99 in 4.0 mi NNW 4.6 mph - N/A Rain Light Rain
12:35 PM 33.8 °F 29.6 °F 33.8 °F 100% 29.99 in 3.0 mi North 4.6 mph - N/A Rain Light Rain
12:55 PM 33.8 °F 29.6 °F 33.8 °F 100% 29.98 in 4.0 mi North 4.6 mph - N/A Rain Light Rain
1:15 PM 35.6 °F 30.7 °F 33.8 °F 93% 29.98 in 10.0 mi North 5.8 mph - N/A Rain Light Rain
1:35 PM 35.6 °F 31.7 °F 33.8 °F 93% 29.97 in 5.0 mi North 4.6 mph - N/A Rain Light Rain
2:15 PM 33.8 °F 29.6 °F 33.8 °F 100% 29.96 in 5.0 mi NNE 4.6 mph - N/A Rain Light Rain
2:35 PM 33.8 °F 30.8 °F 33.8 °F 100% 29.96 in 5.0 mi North 3.5 mph - N/A Rain Light Rain
2:55 PM 35.6 °F 30.7 °F 33.8 °F 93% 29.95 in 7.0 mi North 5.8 mph - N/A Rain Light Rain
3:15 PM 35.6 °F 31.7 °F 33.8 °F 93% 29.96 in 10.0 mi NNW 4.6 mph - N/A Rain Light Rain
3:35 PM 35.6 °F 31.7 °F 33.8 °F 93% 29.96 in 10.0 mi North 4.6 mph - N/A Rain Light Rain
3:55 PM 33.8 °F - 33.8 °F 100% 29.96 in 7.0 mi Calm Calm - N/A Rain Light Rain
4:15 PM 33.8 °F 29.6 °F 33.8 °F 100% 29.96 in 5.0 mi WNW 4.6 mph - N/A Rain Rain
4:35 PM 33.8 °F - 32.0 °F 93% 29.96 in 2.5 mi Calm Calm - N/A   Overcast
4:55 PM 33.8 °F - 33.8 °F 100% 29.96 in 2.5 mi Calm Calm - N/A Snow Light Snow
5:15 PM 33.8 °F - 33.8 °F 100% 29.97 in 5.0 mi Calm Calm - N/A Rain Light Rain
5:35 PM 33.8 °F - 33.8 °F 100% 29.97 in 3.0 mi Calm Calm - N/A   Overcast
5:55 PM 32.0 °F 28.7 °F 32.0 °F 100% 29.97 in 1.0 mi North 3.5 mph - N/A Snow Light Snow
6:15 PM 32.0 °F 28.7 °F 32.0 °F 100% 29.98 in 1.5 mi NNW 3.5 mph - N/A Snow Light Snow
6:35 PM 32.0 °F 28.7 °F 32.0 °F 100% 29.98 in 1.8 mi NW 3.5 mph - N/A Snow Light Snow
6:55 PM 32.0 °F 28.7 °F 32.0 °F 100% 29.99 in 4.0 mi NNW 3.5 mph - N/A Snow Light Snow
7:15 PM 32.0 °F - 32.0 °F 100% 29.99 in 3.0 mi Calm Calm - N/A Snow Light Snow
7:35 PM 32.0 °F - 32.0 °F 100% 29.99 in 2.5 mi Calm Calm - N/A Snow Light Snow
7:55 PM 32.0 °F 28.7 °F 32.0 °F 100% 29.99 in 4.0 mi NNE 3.5 mph - N/A Snow Light Snow
8:15 PM 32.0 °F - 32.0 °F 100% 29.99 in 3.0 mi Calm Calm - N/A Snow Light Snow
8:35 PM 32.0 °F - 32.0 °F 100% 29.99 in 3.0 mi Calm Calm - N/A Snow Light Snow
9:15 PM 32.0 °F 26.4 °F 32.0 °F 100% 30.00 in 5.0 mi ENE 5.8 mph - N/A Snow Light Snow
9:35 PM 32.0 °F 27.5 °F 32.0 °F 100% 30.00 in 7.0 mi NE 4.6 mph - N/A   Overcast
9:55 PM 32.0 °F 25.6 °F 32.0 °F 100% 30.00 in 7.0 mi NE 6.9 mph - N/A   Overcast
10:15 PM 32.0 °F 25.6 °F 32.0 °F 100% 30.00 in 10.0 mi ENE 6.9 mph - N/A   Overcast
10:55 PM 32.0 °F 24.8 °F 32.0 °F 100% 30.00 in 7.0 mi NE 8.1 mph - N/A   Overcast
11:15 PM 32.0 °F 24.8 °F 32.0 °F 100% 30.00 in 7.0 mi ENE 8.1 mph - N/A Snow Light Snow
11:35 PM 32.0 °F 25.6 °F 32.0 °F 100% 30.00 in 4.0 mi NE 6.9 mph - N/A Snow Light Snow
11:55 PM 32.0 °F 24.8 °F 30.2 °F 93% 30.00 in 5.0 mi NE 8.1 mph - N/A Snow Light Snow